| time (UTC) | temp F | wind direction | speed MPH | gust MPH | rain 1hr in | rain 24hr in | rain mn in | humidity % | barometer mb |
| 20260901034605 | 62 | 340 | 0.0 | 8.0 | 0.00 | 0.00 | 0.00 | 67 | 1012.9 |
| 20260901034030 | 62 | 346 | 2.0 | 8.0 | 0.00 | 0.00 | 0.00 | 67 | 1012.8 |
| 20260901033529 | 63 | 23 | 2.0 | 6.0 | 0.00 | 0.00 | 0.00 | 67 | 1012.6 |
| 20260901033046 | 63 | 321 | 3.0 | 8.0 | 0.00 | 0.00 | 0.00 | 66 | 1012.6 |
| 20260901032530 | 63 | 46 | 2.0 | 8.0 | 0.00 | 0.00 | 0.00 | 66 | 1012.4 |
| 20260901032029 | 63 | 338 | 2.0 | 9.0 | 0.00 | 0.00 | 0.00 | 65 | 1012.3 |
| 20260901031544 | 64 | 347 | 3.0 | 9.0 | 0.00 | 0.00 | 0.00 | 65 | 1012.1 |
| 20260901031032 | 64 | 360 | 5.0 | 9.0 | 0.00 | 0.00 | 0.00 | 64 | 1012.2 |
| 20260901030528 | 65 | 18 | 4.0 | 8.0 | 0.00 | 0.00 | 0.00 | 63 | 1012.2 |
| 20260901030050 | 65 | 15 | 3.0 | 8.0 | 0.00 | 0.00 | 0.00 | 61 | 1012.2 |
| 20260901025527 | 66 | 319 | 2.0 | 8.0 | 0.00 | 0.00 | 0.00 | 61 | 1012.2 |
| 20260901025029 | 66 | 5 | 2.0 | 4.0 | 0.00 | 0.00 | 0.00 | 60 | 1012.1 |
| 20260901024553 | 67 | 23 | 1.0 | 4.0 | 0.00 | 0.00 | 0.00 | 60 | 1012.2 |
| 20260901024031 | 67 | 349 | 0.0 | 4.0 | 0.00 | 0.00 | 0.00 | 59 | 1012.2 |
| 20260901023530 | 67 | 5 | 1.0 | 7.0 | 0.00 | 0.00 | 0.00 | 58 | 1012.1 |
| 20260901023101 | 68 | 317 | 2.0 | 8.0 | 0.00 | 0.00 | 0.00 | 58 | 1012.1 |
| 20260901022530 | 68 | 9 | 4.0 | 8.0 | 0.00 | 0.00 | 0.00 | 57 | 1012.0 |
| 20260901022028 | 69 | 330 | 3.0 | 7.0 | 0.00 | 0.00 | 0.00 | 56 | 1012.0 |
| 20260901021554 | 69 | 326 | 1.0 | 6.0 | 0.00 | 0.00 | 0.00 | 55 | 1011.9 |
| 20260901021030 | 69 | 327 | 2.0 | 6.0 | 0.00 | 0.00 | 0.00 | 55 | 1011.9 |
| 20260901020528 | 70 | 15 | 1.0 | 6.0 | 0.00 | 0.00 | 0.00 | 54 | 1011.9 |
| 20260901020050 | 70 | 34 | 2.0 | 6.0 | 0.00 | 0.00 | 0.00 | 53 | 1011.9 |
| 20260901015531 | 71 | 5 | 2.0 | 6.0 | 0.00 | 0.00 | 0.00 | 52 | 1011.9 |
| 20260901015027 | 71 | 331 | 2.0 | 5.0 | 0.00 | 0.00 | 0.00 | 51 | 1011.8 |
| 20260901014554 | 72 | 340 | 2.0 | 5.0 | 0.00 | 0.00 | 0.00 | 50 | 1011.8 |
| 20260901014030 | 72 | 0 | 1.0 | 10.0 | 0.00 | 0.00 | 0.00 | 49 | 1011.8 |
| 20260901013527 | 73 | 39 | 3.0 | 10.0 | 0.00 | 0.00 | 0.00 | 48 | 1011.8 |
| 20260901013046 | 73 | 311 | 4.0 | 9.0 | 0.00 | 0.00 | 0.00 | 47 | 1011.9 |
| 20260901012529 | 74 | 5 | 2.0 | 9.0 | 0.00 | 0.00 | 0.00 | 47 | 1011.9 |
| 20260901012031 | 74 | 344 | 3.0 | 9.0 | 0.00 | 0.00 | 0.00 | 46 | 1011.8 |
| 20260901011543 | 74 | 29 | 5.0 | 8.0 | 0.00 | 0.00 | 0.00 | 44 | 1011.9 |
| 20260901011029 | 75 | 317 | 3.0 | 7.0 | 0.00 | 0.00 | 0.00 | 44 | 1011.8 |
| 20260901010529 | 75 | 352 | 2.0 | 9.0 | 0.00 | 0.00 | 0.00 | 43 | 1011.9 |
| 20260901010045 | 76 | 35 | 3.0 | 9.0 | 0.00 | 0.00 | 0.00 | 43 | 1012.0 |
| 20260901005532 | 76 | 315 | 4.0 | 9.0 | 0.00 | 0.00 | 0.00 | 42 | 1011.9 |
| 20260901005032 | 76 | 348 | 3.0 | 9.0 | 0.00 | 0.00 | 0.00 | 42 | 1011.9 |
| 20260901004600 | 76 | 19 | 3.0 | 9.0 | 0.00 | 0.00 | 0.00 | 41 | 1011.9 |
| 20260901004028 | 76 | 328 | 3.0 | 6.0 | 0.00 | 0.00 | 0.00 | 40 | 1011.9 |
| 20260901003531 | 76 | 342 | 3.0 | 8.0 | 0.00 | 0.00 | 0.00 | 39 | 1011.9 |
| 20260901003049 | 77 | 338 | 3.0 | 8.0 | 0.00 | 0.00 | 0.00 | 39 | 1011.9 |
| 20260901002533 | 77 | 5 | 4.0 | 8.0 | 0.00 | 0.00 | 0.00 | 40 | 1012.0 |
| 20260901002031 | 76 | 339 | 2.0 | 8.0 | 0.00 | 0.00 | 0.00 | 40 | 1012.0 |
| 20260901001545 | 77 | 313 | 3.0 | 9.0 | 0.00 | 0.00 | 0.00 | 40 | 1012.0 |
| 20260901001030 | 77 | 304 | 3.0 | 9.0 | 0.00 | 0.00 | 0.00 | 39 | 1012.0 |
| 20260901000531 | 77 | 323 | 2.0 | 8.0 | 0.00 | 0.00 | 0.00 | 38 | 1012.0 |
| 20260901000045 | 77 | 329 | 3.0 | 8.0 | 0.00 | 0.00 | 0.00 | 39 | 1012.1 |
| 20260831235530 | 78 | 344 | 2.0 | 8.0 | 0.00 | 0.00 | 0.00 | 39 | 1012.1 |
| 20260831235030 | 78 | 352 | 1.0 | 8.0 | 0.00 | 0.00 | 0.00 | 38 | 1012.0 |
| 20260831234550 | 78 | 331 | 1.0 | 9.0 | 0.00 | 0.00 | 0.00 | 39 | 1012.1 |
| 20260831234028 | 78 | 325 | 1.0 | 9.0 | 0.00 | 0.00 | 0.00 | 39 | 1012.1 |
| 20260831233531 | 78 | 323 | 3.0 | 10.0 | 0.00 | 0.00 | 0.00 | 39 | 1012.2 |
| 20260831233049 | 78 | 329 | 4.0 | 10.0 | 0.00 | 0.00 | 0.00 | 38 | 1012.3 |
| 20260831232533 | 79 | 9 | 3.0 | 10.0 | 0.00 | 0.00 | 0.00 | 38 | 1012.3 |
| 20260831232031 | 78 | 298 | 1.0 | 10.0 | 0.00 | 0.00 | 0.00 | 39 | 1012.4 |
| 20260831231546 | 79 | 9 | 5.0 | 10.0 | 0.00 | 0.00 | 0.00 | 38 | 1012.5 |
| 20260831231031 | 79 | 322 | 4.0 | 9.0 | 0.00 | 0.00 | 0.00 | 37 | 1012.6 |
| 20260831230530 | 79 | 5 | 3.0 | 9.0 | 0.00 | 0.00 | 0.00 | 38 | 1012.7 |
| 20260831230043 | 79 | 11 | 5.0 | 9.0 | 0.00 | 0.00 | 0.00 | 37 | 1012.8 |
| 20260831225529 | 78 | 342 | 3.0 | 9.0 | 0.00 | 0.00 | 0.00 | 39 | 1012.7 |
| 20260831225033 | 77 | 25 | 2.0 | 10.0 | 0.00 | 0.00 | 0.00 | 40 | 1012.7 |
| 20260831224550 | 78 | 96 | 1.0 | 10.0 | 0.00 | 0.00 | 0.00 | 40 | 1012.8 |
| 20260831224029 | 78 | 340 | 3.0 | 10.0 | 0.00 | 0.00 | 0.00 | 39 | 1012.8 |
| 20260831223531 | 79 | 338 | 3.0 | 9.0 | 0.00 | 0.00 | 0.00 | 37 | 1012.9 |
| 20260831223043 | 79 | 321 | 3.0 | 8.0 | 0.00 | 0.00 | 0.00 | 39 | 1012.9 |
| 20260831222530 | 79 | 32 | 1.0 | 11.0 | 0.00 | 0.00 | 0.00 | 38 | 1012.9 |
| 20260831222029 | 80 | 307 | 2.0 | 11.0 | 0.00 | 0.00 | 0.00 | 36 | 1012.9 |
| 20260831221558 | 79 | 333 | 4.0 | 11.0 | 0.00 | 0.00 | 0.00 | 34 | 1013.0 |
| 20260831221033 | 79 | 5 | 4.0 | 8.0 | 0.00 | 0.00 | 0.00 | 36 | 1013.0 |
| 20260831220529 | 79 | 286 | 2.0 | 9.0 | 0.00 | 0.00 | 0.00 | 35 | 1012.9 |
| 20260831220100 | 79 | 24 | 3.0 | 9.0 | 0.00 | 0.00 | 0.00 | 36 | 1013.0 |
| 20260831215528 | 79 | 350 | 3.0 | 9.0 | 0.00 | 0.00 | 0.00 | 33 | 1013.0 |
| 20260831215030 | 79 | 345 | 2.0 | 9.0 | 0.00 | 0.00 | 0.00 | 38 | 1013.1 |
| 20260831214545 | 79 | 360 | 3.0 | 9.0 | 0.00 | 0.00 | 0.00 | 37 | 1013.0 |
| 20260831214029 | 79 | 348 | 4.0 | 10.0 | 0.00 | 0.00 | 0.00 | 36 | 1013.1 |
| 20260831213527 | 80 | 350 | 2.0 | 10.0 | 0.00 | 0.00 | 0.00 | 36 | 1013.1 |
| 20260831213051 | 79 | 0 | 4.0 | 10.0 | 0.00 | 0.00 | 0.00 | 35 | 1013.1 |
| 20260831212530 | 78 | 21 | 1.0 | 10.0 | 0.00 | 0.00 | 0.00 | 38 | 1013.1 |
| 20260831212028 | 79 | 45 | 3.0 | 10.0 | 0.00 | 0.00 | 0.00 | 37 | 1013.2 |
| 20260831211601 | 79 | 321 | 1.0 | 6.0 | 0.00 | 0.00 | 0.00 | 37 | 1013.3 |
| 20260831211029 | 79 | 305 | 2.0 | 6.0 | 0.00 | 0.00 | 0.00 | 37 | 1013.3 |
| 20260831210529 | 79 | 327 | 3.0 | 9.0 | 0.00 | 0.00 | 0.00 | 35 | 1013.3 |
| 20260831210046 | 79 | 324 | 4.0 | 9.0 | 0.00 | 0.00 | 0.00 | 37 | 1013.3 |
| 20260831205532 | 78 | 16 | 1.0 | 9.0 | 0.00 | 0.00 | 0.00 | 39 | 1013.4 |
| 20260831205030 | 78 | 5 | 3.0 | 9.0 | 0.00 | 0.00 | 0.00 | 38 | 1013.4 |
| 20260831204551 | 78 | 40 | 5.0 | 9.0 | 0.00 | 0.00 | 0.00 | 39 | 1013.4 |
| 20260831204030 | 78 | 347 | 3.0 | 9.0 | 0.00 | 0.00 | 0.00 | 41 | 1013.4 |
| 20260831203530 | 78 | 29 | 3.0 | 8.0 | 0.00 | 0.00 | 0.00 | 40 | 1013.5 |
| 20260831203052 | 77 | 348 | 2.0 | 9.0 | 0.00 | 0.00 | 0.00 | 40 | 1013.5 |
| 20260831202527 | 77 | 5 | 5.0 | 10.0 | 0.00 | 0.00 | 0.00 | 40 | 1013.5 |
| 20260831202027 | 77 | 19 | 1.0 | 10.0 | 0.00 | 0.00 | 0.00 | 43 | 1013.4 |
| 20260831201550 | 76 | 24 | 2.0 | 11.0 | 0.00 | 0.00 | 0.00 | 44 | 1013.4 |
| 20260831201029 | 77 | 71 | 4.0 | 11.0 | 0.00 | 0.00 | 0.00 | 43 | 1013.5 |
| 20260831200529 | 77 | 352 | 2.0 | 10.0 | 0.00 | 0.00 | 0.00 | 45 | 1013.6 |
| 20260831200056 | 76 | 327 | 5.0 | 10.0 | 0.00 | 0.00 | 0.00 | 43 | 1013.6 |
| 20260831195532 | 76 | 336 | 4.0 | 9.0 | 0.00 | 0.00 | 0.00 | 43 | 1013.5 |
| 20260831195029 | 76 | 342 | 6.0 | 9.0 | 0.00 | 0.00 | 0.00 | 45 | 1013.6 |
| 20260831194554 | 75 | 52 | 1.0 | 9.0 | 0.00 | 0.00 | 0.00 | 46 | 1013.6 |
| 20260831194031 | 76 | 5 | 3.0 | 9.0 | 0.00 | 0.00 | 0.00 | 45 | 1013.7 |
| 20260831193527 | 75 | 93 | 2.0 | 8.0 | 0.00 | 0.00 | 0.00 | 44 | 1013.7 |
| 20260831193048 | 75 | 126 | 2.0 | 8.0 | 0.00 | 0.00 | 0.00 | 45 | 1013.6 |
| 20260831192529 | 76 | 352 | 1.0 | 6.0 | 0.00 | 0.00 | 0.00 | 44 | 1013.7 |
| 20260831192033 | 76 | 11 | 3.0 | 8.0 | 0.00 | 0.00 | 0.00 | 43 | 1013.6 |
| 20260831191544 | 76 | 70 | 2.0 | 8.0 | 0.00 | 0.00 | 0.00 | 47 | 1013.5 |
| 20260831191030 | 76 | 43 | 1.0 | 8.0 | 0.00 | 0.00 | 0.00 | 46 | 1013.5 |
| 20260831190530 | 75 | 107 | 1.0 | 9.0 | 0.00 | 0.00 | 0.00 | 47 | 1013.5 |
| 20260831185529 | 75 | 307 | 2.0 | 7.0 | 0.00 | 0.00 | 0.00 | 46 | 1013.6 |
| 20260831185027 | 75 | 69 | 1.0 | 6.0 | 0.00 | 0.00 | 0.00 | 47 | 1013.5 |
| 20260831184549 | 75 | 331 | 2.0 | 9.0 | 0.00 | 0.00 | 0.00 | 47 | 1013.5 |
| 20260831184027 | 75 | 360 | 3.0 | 9.0 | 0.00 | 0.00 | 0.00 | 47 | 1013.5 |
| 20260831183528 | 75 | 341 | 3.0 | 9.0 | 0.00 | 0.00 | 0.00 | 46 | 1013.5 |
| 20260831183047 | 76 | 342 | 2.0 | 9.0 | 0.00 | 0.00 | 0.00 | 45 | 1013.5 |
| 20260831182527 | 76 | 332 | 2.0 | 8.0 | 0.00 | 0.00 | 0.00 | 45 | 1013.4 |
| 20260831182027 | 77 | 5 | 2.0 | 6.0 | 0.00 | 0.00 | 0.00 | 44 | 1013.4 |
| 20260831181544 | 76 | 26 | 2.0 | 7.0 | 0.00 | 0.00 | 0.00 | 44 | 1013.3 |
| 20260831181029 | 75 | 352 | 3.0 | 7.0 | 0.00 | 0.00 | 0.00 | 45 | 1013.3 |
| 20260831180529 | 75 | 0 | 1.0 | 5.0 | 0.00 | 0.00 | 0.00 | 46 | 1013.3 |
| 20260831180051 | 75 | 0 | 1.0 | 5.0 | 0.00 | 0.00 | 0.00 | 46 | 1013.3 |
| 20260831175529 | 74 | 0 | 2.0 | 7.0 | 0.00 | 0.00 | 0.00 | 46 | 1013.2 |
| 20260831175029 | 73 | 116 | 2.0 | 7.0 | 0.00 | 0.00 | 0.00 | 48 | 1013.3 |
| 20260831174549 | 74 | 153 | 2.0 | 5.0 | 0.00 | 0.00 | 0.00 | 45 | 1013.2 |
| 20260831174032 | 74 | 146 | 0.0 | 4.0 | 0.00 | 0.00 | 0.00 | 45 | 1013.2 |
| 20260831173528 | 73 | 0 | 0.0 | 4.0 | 0.00 | 0.00 | 0.00 | 45 | 1013.2 |
| 20260831173046 | 73 | 0 | 1.0 | 5.0 | 0.00 | 0.00 | 0.00 | 45 | 1013.2 |
| 20260831172527 | 73 | 5 | 0.0 | 5.0 | 0.00 | 0.00 | 0.00 | 44 | 1013.3 |
| 20260831172032 | 72 | 350 | 2.0 | 5.0 | 0.00 | 0.00 | 0.00 | 44 | 1013.3 |
| 20260831171541 | 71 | 0 | 1.0 | 4.0 | 0.00 | 0.00 | 0.00 | 45 | 1013.2 |
| 20260831171030 | 71 | 27 | 0.0 | 3.0 | 0.00 | 0.00 | 0.00 | 46 | 1013.2 |
| 20260831170528 | 70 | 0 | 0.0 | 3.0 | 0.00 | 0.00 | 0.00 | 46 | 1013.2 |
| 20260831170051 | 70 | 15 | 0.0 | 3.0 | 0.00 | 0.00 | 0.00 | 47 | 1013.2 |
| 20260831165529 | 69 | 0 | 0.0 | 5.0 | 0.00 | 0.00 | 0.00 | 48 | 1013.1 |
| 20260831165030 | 69 | 335 | 0.0 | 5.0 | 0.00 | 0.00 | 0.00 | 50 | 1013.2 |
| 20260831164558 | 69 | 352 | 1.0 | 5.0 | 0.00 | 0.00 | 0.00 | 49 | 1013.1 |
| 20260831164028 | 68 | 0 | 1.0 | 3.0 | 0.00 | 0.00 | 0.00 | 49 | 1013.1 |
| 20260831163529 | 68 | 0 | 0.0 | 3.0 | 0.00 | 0.00 | 0.00 | 49 | 1013.1 |
| 20260831163050 | 67 | 0 | 1.0 | 4.0 | 0.00 | 0.00 | 0.00 | 50 | 1013.0 |
| 20260831162530 | 67 | 0 | 1.0 | 4.0 | 0.00 | 0.00 | 0.00 | 51 | 1013.0 |
| 20260831162030 | 67 | 0 | 1.0 | 3.0 | 0.00 | 0.00 | 0.00 | 50 | 1013.1 |
| 20260831161549 | 66 | 13 | 2.0 | 3.0 | 0.00 | 0.00 | 0.00 | 51 | 1013.1 |
| 20260831161027 | 66 | 0 | 1.0 | 3.0 | 0.00 | 0.00 | 0.00 | 52 | 1013.1 |
| 20260831160552 | 66 | 5 | 0.0 | 3.0 | 0.00 | 0.00 | 0.00 | 52 | 1013.1 |
| 20260831160057 | 66 | 0 | 1.0 | 3.0 | 0.00 | 0.00 | 0.00 | 52 | 1013.2 |
| 20260831155530 | 66 | 0 | 0.0 | 3.0 | 0.00 | 0.00 | 0.00 | 52 | 1013.1 |
| 20260831155032 | 65 | 337 | 0.0 | 3.0 | 0.00 | 0.00 | 0.00 | 53 | 1013.1 |
| 20260831154617 | 65 | 338 | 0.0 | 2.0 | 0.00 | 0.00 | 0.00 | 54 | 1013.1 |
| 20260831154030 | 64 | 0 | 0.0 | 2.0 | 0.00 | 0.00 | 0.00 | 54 | 1013.1 |
| 20260831153532 | 64 | 0 | 0.0 | 2.0 | 0.00 | 0.00 | 0.00 | 55 | 1013.2 |
| 20260831153049 | 63 | 0 | 0.0 | 1.0 | 0.00 | 0.00 | 0.00 | 55 | 1013.1 |
| 20260831152531 | 63 | 0 | 0.0 | 1.0 | 0.00 | 0.00 | 0.00 | 56 | 1013.1 |
| 20260831152032 | 63 | 0 | 0.0 | 1.0 | 0.00 | 0.00 | 0.00 | 56 | 1013.0 |
| 20260831151555 | 62 | 0 | 0.0 | 1.0 | 0.00 | 0.00 | 0.00 | 56 | 1013.1 |
| 20260831151032 | 62 | 0 | 0.0 | 1.0 | 0.00 | 0.00 | 0.00 | 56 | 1013.1 |
| 20260831150532 | 62 | 0 | 0.0 | 1.0 | 0.00 | 0.00 | 0.00 | 58 | 1013.1 |
| 20260831150055 | 61 | 0 | 0.0 | 1.0 | 0.00 | 0.00 | 0.00 | 59 | 1013.1 |
| 20260831145532 | 61 | 0 | 0.0 | 0.0 | 0.00 | 0.00 | 0.00 | 58 | 1013.0 |
| 20260831145032 | 61 | 0 | 0.0 | 0.0 | 0.00 | 0.00 | 0.00 | 59 | 1013.0 |
| 20260831144605 | 60 | 0 | 0.0 | 1.0 | 0.00 | 0.00 | 0.00 | 59 | 1012.9 |
| 20260831144033 | 60 | 0 | 0.0 | 1.0 | 0.00 | 0.00 | 0.00 | 59 | 1012.9 |
| 20260831143530 | 60 | 0 | 0.0 | 1.0 | 0.00 | 0.00 | 0.00 | 58 | 1012.9 |
| 20260831143057 | 60 | 0 | 0.0 | 1.0 | 0.00 | 0.00 | 0.00 | 60 | 1012.9 |
| 20260831142534 | 60 | 0 | 0.0 | 1.0 | 0.00 | 0.00 | 0.00 | 59 | 1012.8 |
| 20260831142033 | 60 | 0 | 0.0 | 1.0 | 0.00 | 0.00 | 0.00 | 58 | 1012.8 |
| 20260831141552 | 60 | 0 | 0.0 | 1.0 | 0.00 | 0.00 | 0.00 | 59 | 1012.8 |
| 20260831141032 | 60 | 0 | 0.0 | 2.0 | 0.00 | 0.00 | 0.00 | 57 | 1012.7 |
| 20260831140533 | 60 | 0 | 0.0 | 4.0 | 0.00 | 0.00 | 0.00 | 57 | 1012.7 |
| 20260831140053 | 61 | 0 | 1.0 | 4.0 | 0.00 | 0.00 | 0.00 | 56 | 1012.5 |
| 20260831135533 | 62 | 42 | 0.0 | 4.0 | 0.00 | 0.00 | 0.00 | 54 | 1012.4 |
| 20260831135036 | 62 | 0 | 0.0 | 4.0 | 0.00 | 0.00 | 0.00 | 53 | 1012.3 |
| 20260831134556 | 62 | 332 | 2.0 | 4.0 | 0.00 | 0.00 | 0.00 | 53 | 1012.2 |
| 20260831134032 | 62 | 326 | 0.0 | 2.0 | 0.00 | 0.00 | 0.00 | 53 | 1012.1 |
| 20260831133534 | 62 | 0 | 0.0 | 2.0 | 0.00 | 0.00 | 0.00 | 53 | 1012.0 |
| 20260831133049 | 62 | 292 | 0.0 | 2.0 | 0.00 | 0.00 | 0.00 | 53 | 1011.9 |
| 20260831132531 | 62 | 0 | 0.0 | 2.0 | 0.00 | 0.00 | 0.00 | 53 | 1011.9 |
| 20260831132031 | 62 | 281 | 0.0 | 2.0 | 0.00 | 0.00 | 0.00 | 53 | 1011.8 |
| 20260831131547 | 62 | 287 | 0.0 | 2.0 | 0.00 | 0.00 | 0.00 | 53 | 1011.7 |
| 20260831131032 | 63 | 0 | 0.0 | 2.0 | 0.00 | 0.00 | 0.00 | 52 | 1011.7 |
| 20260831130529 | 63 | 272 | 0.0 | 2.0 | 0.00 | 0.00 | 0.00 | 52 | 1011.7 |
| 20260831130129 | 63 | 236 | 0.0 | 2.0 | 0.00 | 0.00 | 0.00 | 52 | 1011.7 |
| 20260831125531 | 63 | 257 | 0.0 | 2.0 | 0.00 | 0.00 | 0.00 | 52 | 1011.7 |
| 20260831125031 | 63 | 0 | 0.0 | 2.0 | 0.00 | 0.00 | 0.00 | 51 | 1011.7 |
| 20260831124553 | 63 | 0 | 0.0 | 2.0 | 0.00 | 0.00 | 0.00 | 51 | 1011.7 |
| 20260831124032 | 64 | 0 | 0.0 | 2.0 | 0.00 | 0.00 | 0.00 | 51 | 1011.7 |
| 20260831123529 | 64 | 0 | 0.0 | 2.0 | 0.00 | 0.00 | 0.00 | 51 | 1011.8 |
| 20260831123050 | 64 | 278 | 0.0 | 3.0 | 0.00 | 0.00 | 0.00 | 51 | 1011.8 |
| 20260831122532 | 64 | 284 | 0.0 | 3.0 | 0.00 | 0.00 | 0.00 | 51 | 1011.8 |
| 20260831122034 | 64 | 280 | 0.0 | 3.0 | 0.00 | 0.00 | 0.00 | 51 | 1011.8 |
| 20260831121555 | 64 | 0 | 0.0 | 2.0 | 0.00 | 0.00 | 0.00 | 51 | 1011.9 |
| 20260831121033 | 64 | 276 | 0.0 | 2.0 | 0.00 | 0.00 | 0.00 | 51 | 1011.9 |
| 20260831120531 | 64 | 0 | 0.0 | 3.0 | 0.00 | 0.00 | 0.00 | 51 | 1011.8 |
| 20260831120054 | 64 | 0 | 0.0 | 3.0 | 0.00 | 0.00 | 0.00 | 51 | 1011.8 |
| 20260831115531 | 64 | 0 | 0.0 | 2.0 | 0.00 | 0.00 | 0.00 | 51 | 1011.8 |
| 20260831115032 | 64 | 0 | 0.0 | 1.0 | 0.00 | 0.00 | 0.00 | 51 | 1011.9 |
| 20260831114551 | 64 | 0 | 0.0 | 2.0 | 0.00 | 0.00 | 0.00 | 50 | 1011.8 |
| 20260831114031 | 64 | 0 | 0.0 | 2.0 | 0.00 | 0.00 | 0.00 | 50 | 1011.8 |
| 20260831113532 | 64 | 0 | 0.0 | 2.0 | 0.00 | 0.00 | 0.00 | 50 | 1011.9 |
| 20260831113046 | 64 | 0 | 0.0 | 2.0 | 0.00 | 0.00 | 0.00 | 50 | 1011.9 |
| 20260831112531 | 64 | 0 | 0.0 | 2.0 | 0.00 | 0.00 | 0.00 | 50 | 1012.0 |
| 20260831112030 | 64 | 0 | 0.0 | 2.0 | 0.00 | 0.00 | 0.00 | 50 | 1012.0 |
| 20260831111601 | 64 | 0 | 0.0 | 2.0 | 0.00 | 0.00 | 0.00 | 50 | 1012.1 |
| 20260831111030 | 64 | 253 | 0.0 | 2.0 | 0.00 | 0.00 | 0.00 | 50 | 1012.1 |
| 20260831110530 | 64 | 0 | 0.0 | 2.0 | 0.00 | 0.00 | 0.00 | 50 | 1012.1 |
| 20260831110053 | 64 | 0 | 0.0 | 2.0 | 0.00 | 0.00 | 0.00 | 50 | 1012.2 |
| 20260831105533 | 64 | 0 | 0.0 | 2.0 | 0.00 | 0.00 | 0.00 | 50 | 1012.2 |
| 20260831105030 | 65 | 0 | 0.0 | 4.0 | 0.00 | 0.00 | 0.00 | 50 | 1012.1 |
| 20260831104556 | 65 | 0 | 0.0 | 4.0 | 0.00 | 0.00 | 0.00 | 50 | 1012.2 |
| 20260831104031 | 65 | 0 | 0.0 | 2.0 | 0.00 | 0.00 | 0.00 | 50 | 1012.2 |
| 20260831103534 | 65 | 0 | 0.0 | 2.0 | 0.00 | 0.00 | 0.00 | 50 | 1012.1 |
| 20260831103043 | 65 | 230 | 0.0 | 2.0 | 0.00 | 0.00 | 0.00 | 50 | 1012.2 |
| 20260831102529 | 65 | 240 | 0.0 | 3.0 | 0.00 | 0.00 | 0.00 | 50 | 1012.1 |
| 20260831102028 | 65 | 0 | 0.0 | 3.0 | 0.00 | 0.00 | 0.00 | 50 | 1012.1 |
| 20260831101551 | 65 | 0 | 0.0 | 3.0 | 0.00 | 0.00 | 0.00 | 50 | 1012.1 |
| 20260831101032 | 65 | 249 | 0.0 | 2.0 | 0.00 | 0.00 | 0.00 | 50 | 1012.1 |
| 20260831100529 | 65 | 235 | 0.0 | 2.0 | 0.00 | 0.00 | 0.00 | 50 | 1012.0 |
| 20260831100047 | 65 | 0 | 0.0 | 2.0 | 0.00 | 0.00 | 0.00 | 49 | 1012.0 |
| 20260831095528 | 65 | 0 | 0.0 | 2.0 | 0.00 | 0.00 | 0.00 | 49 | 1012.0 |
| 20260831095033 | 65 | 261 | 0.0 | 2.0 | 0.00 | 0.00 | 0.00 | 49 | 1012.1 |
| 20260831094549 | 65 | 0 | 0.0 | 2.0 | 0.00 | 0.00 | 0.00 | 49 | 1012.0 |
| 20260831094028 | 65 | 0 | 0.0 | 2.0 | 0.00 | 0.00 | 0.00 | 49 | 1012.0 |
| 20260831093527 | 66 | 232 | 0.0 | 1.0 | 0.00 | 0.00 | 0.00 | 49 | 1012.1 |
| 20260831093051 | 66 | 0 | 0.0 | 2.0 | 0.00 | 0.00 | 0.00 | 48 | 1012.1 |
| 20260831092526 | 66 | 0 | 0.0 | 2.0 | 0.00 | 0.00 | 0.00 | 48 | 1012.1 |
| 20260831092030 | 66 | 0 | 0.0 | 2.0 | 0.00 | 0.00 | 0.00 | 48 | 1012.1 |
| 20260831091544 | 66 | 0 | 0.0 | 2.0 | 0.00 | 0.00 | 0.00 | 48 | 1012.2 |
| 20260831091027 | 66 | 0 | 0.0 | 2.0 | 0.00 | 0.00 | 0.00 | 48 | 1012.1 |
| 20260831090530 | 66 | 278 | 0.0 | 2.0 | 0.00 | 0.00 | 0.00 | 48 | 1012.1 |
| 20260831090050 | 66 | 0 | 0.0 | 3.0 | 0.00 | 0.00 | 0.00 | 48 | 1012.1 |
| 20260831085534 | 66 | 261 | 0.0 | 3.0 | 0.00 | 0.00 | 0.00 | 47 | 1012.1 |
| 20260831085029 | 66 | 280 | 0.0 | 2.0 | 0.00 | 0.00 | 0.00 | 47 | 1012.3 |
| 20260831084542 | 66 | 0 | 0.0 | 2.0 | 0.00 | 0.00 | 0.00 | 47 | 1012.2 |
| 20260831084028 | 66 | 280 | 0.0 | 2.0 | 0.00 | 0.00 | 0.00 | 47 | 1012.2 |
| 20260831083528 | 67 | 269 | 0.0 | 2.0 | 0.00 | 0.00 | 0.00 | 47 | 1012.3 |
| 20260831083044 | 67 | 287 | 0.0 | 2.0 | 0.00 | 0.00 | 0.00 | 46 | 1012.3 |
| 20260831082526 | 67 | 0 | 0.0 | 2.0 | 0.00 | 0.00 | 0.00 | 46 | 1012.2 |
| 20260831082032 | 67 | 0 | 0.0 | 2.0 | 0.00 | 0.00 | 0.00 | 46 | 1012.2 |
| 20260831081552 | 67 | 275 | 0.0 | 3.0 | 0.00 | 0.00 | 0.00 | 46 | 1012.4 |
| 20260831081027 | 67 | 0 | 0.0 | 3.0 | 0.00 | 0.00 | 0.00 | 45 | 1012.4 |
| 20260831080528 | 67 | 0 | 0.0 | 3.0 | 0.00 | 0.00 | 0.00 | 46 | 1012.4 |
| 20260831080048 | 67 | 275 | 0.0 | 2.0 | 0.00 | 0.00 | 0.00 | 45 | 1012.5 |
| 20260831075527 | 67 | 279 | 0.0 | 2.0 | 0.00 | 0.00 | 0.00 | 45 | 1012.5 |
| 20260831075026 | 67 | 289 | 0.0 | 2.0 | 0.00 | 0.00 | 0.00 | 46 | 1012.5 |
| 20260831074545 | 67 | 306 | 0.0 | 2.0 | 0.00 | 0.00 | 0.00 | 46 | 1012.4 |
| 20260831074027 | 67 | 225 | 0.0 | 3.0 | 0.00 | 0.00 | 0.00 | 45 | 1012.5 |
| 20260831073529 | 67 | 283 | 0.0 | 3.0 | 0.00 | 0.00 | 0.00 | 45 | 1012.5 |
| 20260831073047 | 67 | 281 | 0.0 | 2.0 | 0.00 | 0.00 | 0.00 | 45 | 1012.4 |
| 20260831072528 | 67 | 0 | 0.0 | 2.0 | 0.00 | 0.00 | 0.00 | 45 | 1012.4 |
| 20260831072029 | 67 | 320 | 0.0 | 2.0 | 0.00 | 0.00 | 0.00 | 45 | 1012.4 |
| 20260831071549 | 68 | 281 | 0.0 | 2.0 | 0.00 | 0.00 | 0.00 | 45 | 1012.2 |
| 20260831071027 | 68 | 0 | 0.0 | 2.0 | 0.00 | 0.00 | 0.00 | 45 | 1012.3 |
| 20260831070530 | 68 | 0 | 0.0 | 2.0 | 0.00 | 0.00 | 0.00 | 45 | 1012.2 |
| 20260831070048 | 68 | 0 | 0.0 | 2.0 | 0.00 | 0.00 | 0.00 | 44 | 1012.3 |
| 20260831065536 | 69 | 284 | 0.0 | 2.0 | 0.00 | 0.00 | 0.00 | 44 | 1012.4 |
| 20260831065031 | 69 | 0 | 0.0 | 2.0 | 0.00 | 0.00 | 0.00 | 44 | 1012.4 |
| 20260831064544 | 69 | 0 | 0.0 | 2.0 | 0.00 | 0.00 | 0.00 | 44 | 1012.5 |
| 20260831064030 | 69 | 0 | 0.0 | 2.0 | 0.00 | 0.00 | 0.00 | 44 | 1012.4 |
| 20260831063529 | 69 | 0 | 0.0 | 2.0 | 0.00 | 0.00 | 0.00 | 44 | 1012.5 |
| 20260831063052 | 69 | 0 | 0.0 | 2.0 | 0.00 | 0.00 | 0.00 | 44 | 1012.5 |
| 20260831062530 | 69 | 240 | 0.0 | 2.0 | 0.00 | 0.00 | 0.00 | 43 | 1012.5 |
| 20260831062030 | 69 | 0 | 0.0 | 2.0 | 0.00 | 0.00 | 0.00 | 43 | 1012.6 |
| 20260831061550 | 69 | 0 | 0.0 | 2.0 | 0.00 | 0.00 | 0.00 | 43 | 1012.7 |
| 20260831061030 | 69 | 252 | 0.0 | 2.0 | 0.00 | 0.00 | 0.00 | 42 | 1012.6 |
| 20260831060532 | 70 | 0 | 0.0 | 2.0 | 0.00 | 0.00 | 0.00 | 42 | 1012.6 |
| 20260831060050 | 70 | 0 | 0.0 | 2.0 | 0.00 | 0.00 | 0.00 | 41 | 1012.7 |
| 20260831055532 | 70 | 275 | 0.0 | 2.0 | 0.00 | 0.00 | 0.00 | 41 | 1012.7 |
| 20260831055031 | 70 | 0 | 0.0 | 2.0 | 0.00 | 0.00 | 0.00 | 41 | 1012.7 |
| 20260831054543 | 71 | 0 | 0.0 | 1.0 | 0.00 | 0.00 | 0.00 | 41 | 1012.7 |
| 20260831054031 | 71 | 0 | 0.0 | 1.0 | 0.00 | 0.00 | 0.00 | 41 | 1012.6 |
| 20260831053529 | 71 | 0 | 0.0 | 1.0 | 0.00 | 0.00 | 0.00 | 41 | 1012.7 |
| 20260831053048 | 71 | 281 | 0.0 | 1.0 | 0.00 | 0.00 | 0.00 | 41 | 1012.6 |
| 20260831052531 | 71 | 0 | 0.0 | 2.0 | 0.00 | 0.00 | 0.00 | 41 | 1012.7 |
| 20260831052033 | 71 | 0 | 0.0 | 2.0 | 0.00 | 0.00 | 0.00 | 41 | 1012.7 |
| 20260831051544 | 72 | 274 | 0.0 | 1.0 | 0.00 | 0.00 | 0.00 | 41 | 1012.6 |
| 20260831051030 | 72 | 0 | 0.0 | 1.0 | 0.00 | 0.00 | 0.00 | 40 | 1012.7 |
| 20260831050530 | 72 | 0 | 0.0 | 1.0 | 0.00 | 0.00 | 0.00 | 39 | 1012.8 |
| 20260831050053 | 72 | 0 | 0.0 | 1.0 | 0.00 | 0.00 | 0.00 | 39 | 1012.7 |
| 20260831045533 | 72 | 255 | 0.0 | 1.0 | 0.00 | 0.00 | 0.00 | 38 | 1012.7 |
| 20260831045032 | 73 | 0 | 0.0 | 1.0 | 0.00 | 0.00 | 0.00 | 37 | 1012.7 |
| 20260831044604 | 73 | 0 | 0.0 | 2.0 | 0.00 | 0.00 | 0.00 | 37 | 1012.7 |
| 20260831044037 | 74 | 313 | 0.0 | 3.0 | 0.00 | 0.00 | 0.00 | 37 | 1012.6 |
| 20260831043530 | 74 | 0 | 0.0 | 4.0 | 0.00 | 0.00 | 0.00 | 37 | 1012.6 |
| 20260831043057 | 74 | 331 | 1.0 | 4.0 | 0.00 | 0.00 | 0.00 | 37 | 1012.5 |
| 20260831042529 | 74 | 17 | 2.0 | 4.0 | 0.00 | 0.00 | 0.00 | 37 | 1012.6 |
| 20260831042031 | 74 | 0 | 0.0 | 0.0 | 0.00 | 0.00 | 0.00 | 37 | 1012.6 |
| 20260831041559 | 75 | 0 | 0.0 | 0.0 | 0.00 | 0.00 | 0.00 | 36 | 1012.4 |
| 20260831041031 | 75 | 0 | 0.0 | 1.0 | 0.00 | 0.00 | 0.00 | 36 | 1012.4 |
| 20260831040531 | 75 | 0 | 0.0 | 1.0 | 0.00 | 0.00 | 0.00 | 36 | 1012.4 |
| 20260831040051 | 75 | 0 | 0.0 | 1.0 | 0.00 | 0.00 | 0.00 | 35 | 1012.4 |
| 20260831035530 | 76 | 0 | 0.0 | 1.0 | 0.00 | 0.00 | 0.00 | 35 | 1012.3 |
| 20260831035030 | 76 | 0 | 0.0 | 1.0 | 0.00 | 0.00 | 0.00 | 35 | 1012.3 |